Wind_Speed
39 39 38 39 39 40 41 41 42 40 40 40 40 40 41 41 40 39 39 39 40 39 39 39 39 39 40 40 41 41 42 41 42 43 44 45 45 46 46 47 47 46 45 44
37 38 39 39 38 39 39 39 40 40 39 39 40 40 40 39 39 39 39 39 40 40 40 40 39 39 40 40 40 40 40 41 42 42 43 44 44 44 45 45 44 43 43 43
36 36 38 39 38 38 38 38 39 39 38 38 37 38 38 38 38 38 38 38 39 39 40 40 40 40 39 39 39 39 40 40 41 41 42 42 42 43 43 42 42 41 41 40
36 36 37 37 36 37 37 37 38 37 37 37 36 36 36 36 37 37 37 37 38 38 38 40 40 39 39 39 39 39 39 40 40 40 41 40 41 40 40 39 39 39 39 39
33 34 35 34 34 34 34 35 35 36 36 36 36 36 36 36 36 36 36 37 37 37 38 38 39 39 38 38 38 38 38 39 38 39 39 38 38 38 37 37 37 37 37 38
33 33 33 32 32 33 34 34 33 34 35 35 35 35 35 35 35 36 36 36 37 37 37 36 36 36 37 37 36 36 36 37 37 37 37 37 37 36 36 36 36 35 35 35
30 32 32 31 30 31 32 32 32 33 34 35 35 35 34 34 34 35 35 35 35 35 35 35 35 35 35 35 35 34 35 36 36 36 36 36 36 36 35 34 33 33 33 32
28 29 30 30 30 31 31 32 31 32 32 33 33 33 33 33 33 33 33 33 33 33 33 34 34 35 35 34 34 34 34 35 35 35 34 34 35 34 33 33 32 31 31 30
27 27 27 27 28 29 29 29 29 30 30 31 31 31 31 32 32 32 32 32 32 32 33 33 33 34 35 34 34 34 35 34 34 33 33 33 32 32 32 31 30 30 29 29
24 24 25 25 25 26 26 27 28 28 29 30 30 30 31 31 32 32 32 32 32 32 32 32 32 33 33 33 33 33 32 32 32 32 31 31 31 30 29 29 28 28 27 28
23 23 23 24 24 25 25 26 26 27 27 28 28 29 30 30 31 31 31 31 31 31 32 32 32 32 32 31 31 30 30 30 30 30 30 29 29 28 27 27 27 27 27 27
22 22 23 23 24 25 25 25 26 26 26 26 27 28 28 29 30 30 30 30 30 31 31 31 31 31 31 31 30 29 28 28 28 27 28 28 27 27 26 26 26 26 26 26
20 21 21 21 23 23 24 24 25 26 26 26 27 26 26 27 28 28 28 29 29 29 29 29 29 29 29 28 28 27 26 26 26 26 26 26 26 26 26 26 26 26 26 26
18 19 20 21 22 23 23 23 23 24 24 24 24 25 25 25 25 26 26 26 26 27 27 26 26 26 26 25 25 25 25 25 24 24 24 24 24 25 25 25 25 25 25 25
18 18 19 20 21 22 22 22 22 23 22 23 23 24 24 24 24 24 24 24 24 24 24 23 23 23 23 23 22 22 22 22 22 22 22 22 23 23 22 23 23 23 23 24
17 18 19 20 20 21 22 22 22 23 23 23 23 23 23 23 23 23 22 23 22 22 22 22 21 21 22 22 21 20 20 20 20 20 20 20 21 21 21 21 22 21 21 22
17 18 19 20 20 21 21 21 22 22 23 23 23 23 23 23 22 22 21 22 21 21 21 21 21 21 21 21 21 20 20 20 20 20 20 20 20 20 20 21 21 21 20 20
16 17 18 18 19 20 21 22 21 22 22 23 23 23 23 22 22 21 21 21 21 21 21 20 20 20 20 19 19 19 19 20 20 20 20 19 19 19 19 18 18 17 17 17
17 18 18 19 19 19 20 22 22 22 22 22 22 22 22 22 22 21 21 20 20 20 20 19 19 19 18 18 18 18 18 18 18 18 17 17 17 17 16 15 15 14 14 14
17 18 18 19 19 19 20 20 20 21 21 21 21 21 21 21 21 21 20 20 20 20 19 19 19 18 18 17 16 16 16 15 15 15 14 14 14 14 14 13 12 12 11 11
17 17 17 17 17 18 18 18 19 19 19 19 19 20 19 20 20 19 19 19 19 19 18 18 18 18 17 16 15 15 14 14 14 14 13 12 12 12 12 11 11 10 9 9
15 15 15 16 16 16 16 17 17 17 17 17 17 18 18 18 18 18 18 18 18 17 17 17 17 17 16 15 14 13 13 12 12 12 11 11 11 10 11 10 10 9 8 8
14 14 14 14 14 14 14 14 14 14 14 14 14 15 15 16 16 17 17 17 17 17 16 16 16 15 14 13 12 12 11 11 11 11 10 9 9 9 9 9 9 8 7 7
13 13 12 12 12 11 11 11 12 12 12 12 12 12 12 13 13 14 14 15 15 15 15 15 14 14 13 12 12 11 11 11 10 9 9 8 8 7 7 8 8 8 7 8
12 11 11 10 10 10 10 10 10 10 10 10 10 10 10 10 11 11 11 12 13 13 13 13 13 12 12 12 12 11 11 11 10 9 8 8 8 7 7 7 7 7 8 8
10 9 9 9 9 8 8 8 8 8 8 8 9 8 8 8 8 9 10 11 11 11 11 11 12 11 11 11 11 10 10 10 9 9 8 8 8 8 8 7 7 7 8 9
9 8 8 8 7 7 6 6 6 6 7 7 7 7 7 7 7 7 8 9 9 9 9 9 10 10 10 10 10 9 9 9 9 9 8 9 9 9 8 8 7 8 8 9
Wind_Direction
240 242 242 242 243 245 248 250 252 253 255 256 258 261 262 263 264 264 265 264 262 262 263 264 264 265 266 267 269 270 270 270 271 272 274 275 276 277 278 279 278 277 276 275
242 243 244 244 244 246 248 249 252 254 255 256 258 259 261 261 262 263 263 263 261 262 263 264 265 266 267 269 270 270 269 270 271 273 275 276 277 277 278 278 277 277 276 275
244 244 246 247 245 247 248 249 252 255 256 257 258 259 261 261 261 262 263 263 263 263 262 263 264 265 267 269 270 270 270 270 272 274 275 277 277 278 277 276 276 276 276 276
246 245 247 247 246 248 250 251 252 254 255 256 258 260 262 261 261 262 262 262 262 261 262 263 264 265 267 269 270 271 270 270 271 274 275 276 276 276 276 275 275 275 275 275
246 246 248 247 247 248 250 250 251 253 254 256 258 260 262 260 261 262 262 262 262 262 262 264 264 265 267 268 269 270 270 270 271 273 274 274 274 274 275 275 275 276 276 276
246 247 248 246 247 248 249 250 251 253 255 257 259 261 262 260 260 261 262 262 263 263 264 265 264 265 266 267 268 268 269 269 271 272 273 272 272 272 273 273 274 275 275 276
247 248 249 248 250 251 252 252 253 255 257 258 259 260 261 261 260 260 261 262 262 263 264 264 264 265 267 267 267 268 268 269 271 272 272 272 271 272 272 272 272 273 275 274
247 250 251 251 252 253 255 254 255 256 256 257 258 259 259 260 260 260 260 260 260 261 262 263 264 265 267 268 268 268 269 270 271 272 272 272 271 272 272 272 272 273 273 272
247 250 252 252 253 253 254 255 255 255 256 257 257 257 258 259 259 259 259 259 260 261 261 262 263 265 266 267 268 268 269 269 270 271 271 271 270 271 272 272 272 271 270 271
245 248 249 251 252 253 254 255 254 254 254 255 256 256 258 259 259 260 260 259 260 261 261 262 263 265 265 267 267 267 268 268 269 270 270 270 270 271 272 271 270 270 270 272
249 248 248 249 250 252 253 254 255 255 255 256 255 255 257 259 259 260 260 261 262 262 263 263 263 265 265 267 268 268 268 269 270 269 269 271 272 271 270 270 271 272 273 273
250 250 251 250 250 252 253 254 255 256 256 255 256 257 259 260 260 260 260 262 262 264 265 264 264 265 266 267 267 267 267 268 269 269 270 270 270 270 269 270 271 273 274 274
250 250 251 252 251 252 254 256 256 256 256 256 256 258 259 260 262 261 262 262 263 264 265 264 263 264 265 265 265 267 267 267 268 270 270 269 269 269 269 270 271 273 274 274
253 252 251 252 252 253 254 255 255 255 255 255 256 257 258 260 260 260 260 261 261 262 262 261 261 262 262 263 264 266 266 266 268 269 270 270 270 271 270 269 269 271 272 272
254 255 255 256 256 256 255 254 253 251 251 252 254 255 257 259 260 259 259 259 260 260 259 259 261 262 262 263 264 264 264 265 266 268 269 270 271 270 269 269 269 270 270 271
258 258 258 259 258 258 257 255 253 251 252 254 255 256 258 260 261 260 259 258 260 260 258 259 261 261 262 262 262 263 263 265 266 268 270 270 270 269 269 270 271 272 272 272
264 264 264 263 261 261 261 258 256 256 255 255 257 257 259 260 260 259 258 258 260 258 255 256 257 259 260 260 260 262 264 266 267 269 271 270 269 269 270 271 271 272 274 273
268 269 269 269 268 267 264 261 259 259 258 258 258 259 260 260 259 258 258 257 257 254 253 255 256 258 260 259 261 264 265 267 268 271 271 269 269 270 271 271 271 272 273 272
271 272 272 271 271 270 266 263 262 261 260 259 259 260 259 258 257 256 256 256 255 252 252 253 255 257 259 261 264 265 267 268 269 271 271 271 270 269 268 268 269 270 271 270
275 275 273 272 271 271 269 267 264 262 261 261 261 260 259 257 256 255 254 254 252 250 250 251 254 257 259 262 265 265 266 267 268 269 271 273 269 266 265 264 265 266 267 267
277 277 275 273 272 272 271 268 266 263 261 261 259 257 255 255 254 254 253 253 250 248 250 252 255 255 257 258 260 261 262 264 266 266 268 270 267 264 262 259 259 261 262 261
279 278 276 275 274 273 271 269 266 263 261 259 257 254 253 253 253 252 252 251 247 247 249 251 251 251 252 254 255 255 257 260 261 262 264 266 264 260 255 251 251 254 251 242
281 279 278 277 275 273 271 268 265 262 259 257 253 251 249 250 251 251 250 248 246 247 248 247 244 244 246 249 248 249 252 256 256 257 261 263 260 255 249 244 243 244 235 225
285 283 280 278 276 273 270 268 265 262 258 254 250 248 248 248 248 249 247 244 242 241 241 240 238 238 241 242 242 244 249 251 252 255 256 253 249 242 235 233 232 226 218 214
285 282 279 277 275 273 271 270 268 265 259 254 248 245 245 244 244 244 241 238 235 233 232 230 228 231 236 238 240 243 246 247 249 250 249 245 234 225 222 221 218 213 207 200
282 279 276 275 275 274 271 268 265 262 255 247 240 238 237 237 238 239 237 233 227 222 221 222 224 228 231 231 234 237 239 242 243 242 241 231 217 212 210 210 208 199 190 183
281 277 275 274 274 274 270 266 263 259 251 241 235 232 231 232 233 232 229 222 215 212 213 216 219 224 225 225 228 231 235 236 238 236 228 215 208 205 202 201 196 187 181 179
Height
5531 5534 5537 5541 5545 5548 5551 5553 5557 5560 5563 5565 5566 5567 5568 5569 5570 5571 5572 5573 5574 5575 5575 5575 5576 5576 5576 5575 5574 5573 5572 5571 5571 5569 5568 5566 5565 5563 5561 5558 5556 5554 5551 5550
5522 5525 5527 5531 5535 5538 5540 5543 5546 5548 5552 5553 5555 5556 5557 5558 5559 5560 5561 5562 5563 5564 5564 5565 5565 5565 5565 5564 5563 5562 5561 5560 5559 5558 5557 5555 5553 5551 5549 5547 5545 5543 5540 5539
5513 5515 5518 5522 5526 5528 5531 5533 5536 5538 5542 5543 5544 5546 5547 5548 5548 5549 5550 5551 5552 5552 5553 5554 5554 5554 5554 5553 5552 5551 5550 5549 5548 5547 5545 5544 5542 5540 5538 5536 5534 5532 5530 5528
5503 5506 5509 5515 5517 5519 5521 5523 5526 5528 5530 5532 5533 5535 5536 5537 5538 5539 5540 5541 5541 5542 5542 5543 5543 5543 5543 5542 5541 5540 5539 5539 5537 5536 5535 5533 5531 5529 5527 5526 5524 5522 5521 5519
5493 5496 5499 5505 5507 5509 5511 5513 5516 5518 5519 5521 5523 5524 5526 5526 5527 5528 5529 5530 5531 5531 5532 5532 5532 5532 5532 5531 5530 5530 5529 5528 5527 5526 5524 5523 5521 5519 5518 5517 5515 5513 5511 5510
5485 5487 5491 5496 5498 5499 5502 5504 5506 5508 5509 5511 5513 5514 5516 5516 5517 5518 5519 5519 5520 5521 5521 5522 5522 5522 5522 5521 5520 5520 5519 5518 5516 5515 5514 5513 5511 5510 5508 5507 5506 5504 5503 5501
5476 5478 5481 5487 5488 5490 5494 5495 5497 5498 5499 5501 5503 5504 5505 5506 5507 5507 5508 5509 5509 5510 5511 5511 5512 5512 5512 5511 5511 5510 5509 5508 5507 5506 5504 5503 5502 5501 5499 5498 5497 5495 5494 5493
5468 5471 5476 5477 5478 5482 5483 5485 5486 5488 5489 5491 5492 5493 5494 5495 5496 5497 5498 5499 5499 5500 5501 5501 5502 5502 5502 5502 5501 5501 5500 5499 5498 5496 5495 5494 5493 5491 5490 5489 5488 5487 5486 5484
5462 5465 5466 5468 5469 5471 5473 5475 5477 5479 5480 5482 5483 5484 5485 5486 5487 5488 5489 5489 5490 5490 5491 5492 5492 5492 5492 5492 5492 5492 5491 5489 5488 5487 5486 5484 5483 5482 5481 5480 5479 5478 5477 5477
5453 5456 5458 5459 5461 5463 5465 5466 5468 5470 5471 5473 5474 5475 5476 5477 5478 5479 5479 5480 5481 5481 5482 5482 5482 5482 5483 5483 5482 5482 5481 5480 5479 5478 5477 5476 5475 5474 5473 5472 5471 5470 5470 5469
5446 5448 5450 5452 5453 5455 5457 5458 5460 5461 5462 5463 5465 5466 5467 5468 5469 5469 5470 5471 5472 5472 5473 5473 5473 5473 5473 5473 5473 5472 5472 5471 5470 5469 5469 5468 5467 5466 5465 5465 5463 5463 5462 5461
5440 5442 5443 5445 5446 5447 5449 5450 5452 5453 5454 5455 5456 5457 5458 5459 5459 5460 5461 5461 5462 5463 5463 5463 5464 5464 5464 5464 5463 5463 5463 5462 5462 5461 5460 5460 5459 5458 5457 5457 5456 5455 5455 5454
5433 5434 5436 5437 5439 5440 5441 5442 5444 5445 5446 5447 5448 5449 5449 5450 5450 5451 5451 5452 5453 5453 5454 5454 5454 5455 5455 5455 5455 5454 5454 5454 5453 5453 5452 5451 5451 5451 5450 5450 5449 5448 5447 5446
5427 5428 5430 5431 5432 5433 5434 5435 5435 5436 5437 5438 5439 5440 5441 5442 5442 5442 5443 5444 5444 5445 5445 5446 5446 5446 5446 5446 5446 5446 5446 5446 5445 5445 5444 5443 5443 5442 5442 5442 5441 5440 5440 5439
5422 5422 5423 5424 5425 5426 5427 5427 5428 5429 5429 5430 5431 5432 5433 5434 5434 5434 5435 5436 5436 5437 5437 5438 5438 5439 5439 5439 5439 5439 5438 5438 5438 5437 5437 5436 5435 5435 5434 5434 5434 5433 5432 5432
5416 5416 5417 5418 5419 5419 5419 5420 5421 5421 5422 5423 5424 5425 5425 5426 5426 5427 5427 5428 5429 5430 5430 5431 5431 5432 5432 5432 5432 5432 5432 5431 5431 5431 5430 5429 5428 5428 5427 5427 5426 5426 5425 5425
5410 5410 5410 5411 5411 5412 5412 5413 5413 5414 5414 5415 5416 5417 5418 5418 5419 5420 5420 5421 5422 5422 5423 5424 5424 5425 5425 5425 5425 5425 5425 5425 5424 5424 5423 5423 5422 5421 5421 5420 5419 5419 5419 5418
5404 5404 5404 5404 5404 5405 5405 5405 5406 5406 5407 5408 5409 5410 5410 5411 5411 5412 5413 5414 5415 5416 5416 5417 5418 5418 5418 5419 5419 5419 5419 5419 5418 5417 5417 5416 5415 5415 5414 5413 5413 5412 5412 5411
5398 5398 5398 5398 5398 5398 5398 5398 5399 5399 5400 5400 5401 5402 5402 5403 5404 5405 5406 5407 5408 5409 5410 5410 5411 5412 5412 5412 5412 5412 5412 5412 5412 5411 5410 5410 5409 5408 5408 5408 5407 5407 5407 5406
5392 5392 5391 5391 5391 5391 5391 5391 5391 5392 5392 5392 5393 5394 5394 5395 5396 5398 5399 5400 5401 5402 5403 5404 5405 5406 5406 5406 5406 5407 5406 5406 5406 5405 5405 5404 5403 5403 5403 5403 5403 5402 5402 5402
5386 5386 5385 5385 5384 5384 5384 5384 5384 5384 5385 5385 5386 5386 5387 5388 5390 5391 5392 5393 5394 5395 5396 5398 5399 5399 5400 5400 5401 5401 5401 5401 5401 5400 5400 5400 5399 5399 5399 5398 5399 5399 5399 5399
5380 5380 5379 5379 5378 5378 5378 5377 5378 5378 5378 5379 5379 5380 5381 5382 5383 5385 5386 5387 5388 5389 5390 5392 5393 5393 5394 5395 5395 5396 5396 5396 5396 5396 5396 5395 5395 5395 5395 5395 5395 5395 5396 5396
5375 5374 5374 5373 5373 5373 5372 5372 5372 5372 5373 5373 5374 5374 5375 5377 5378 5379 5380 5381 5382 5383 5385 5386 5387 5388 5389 5390 5390 5391 5391 5392 5392 5392 5392 5392 5392 5391 5391 5391 5392 5393 5393 5394
5370 5370 5369 5369 5368 5368 5368 5368 5368 5368 5368 5368 5369 5370 5371 5372 5373 5373 5374 5376 5377 5378 5379 5380 5382 5383 5384 5385 5386 5387 5387 5388 5388 5388 5388 5388 5388 5389 5389 5389 5390 5391 5392 5393
5366 5365 5365 5365 5364 5364 5364 5364 5363 5363 5364 5364 5365 5365 5366 5367 5368 5369 5370 5371 5372 5374 5375 5376 5377 5379 5380 5381 5382 5382 5383 5384 5384 5385 5385 5385 5386 5386 5387 5388 5388 5390 5391 5392
5362 5362 5361 5361 5361 5361 5360 5360 5360 5360 5360 5361 5361 5362 5363 5364 5365 5365 5366 5367 5369 5370 5371 5373 5374 5375 5376 5377 5378 5379 5379 5380 5381 5381 5382 5382 5383 5384 5385 5386 5388 5389 5390 5391
5359 5359 5358 5358 5358 5358 5357 5357 5357 5357 5357 5358 5358 5359 5360 5361 5362 5363 5364 5365 5366 5367 5368 5370 5371 5372 5373 5374 5375 5375 5376 5377 5377 5378 5379 5380 5381 5382 5384 5385 5387 5388 5390 5391